e 0.5541269 Incl. 165.59600 -0.12643267 +0.11940918
P 3.02 H 15.2 P/d 1101.99
Residuals in seconds of arc
K04CC 568 0.6+ 0.2- K0515 568 0.1- 0.2- K0538 568 0.0 0.0
K04CC 568 0.5- 0.3+ K0515 568 0.0 0.2- K0538 568 0.0 0.1-
K04CE 568 0.2- 0.1+ K052G 568 0.1- 0.1+
K04CE 568 0.1+ 0.0 K052G 568 0.1+ 0.1+
S/2004 S 8
Epoch 2005 Jan. 30.0 TT = JDT 2453400.5 MPC
M 276.50917 (2000.0) P Q
n 0.26581167 Peri. 359.95915 +0.00763776 -0.97831238
a 0.1578160 Node 270.39765 -0.91739659 -0.08922324
e 0.1859169 Incl. 168.05345 -0.39790094 +0.18693341
P 3.71 H 15.3 P/d 1354.34
Residuals in seconds of arc
K04CC 568 0.7- 0.4+ K0515 568 0.2- 0.1+ K0535 568 0.1- 0.0
K04CC 568 0.1- 0.2- K0527 568 0.2+ 0.0 K0535 568 0.1- 0.0
K04CE 568 0.2+ 0.1- K0527 568 0.6- 0.0 K053B 568 0.1+ 0.1+
K04CE 568 0.7+ 0.1+ K0528 568 0.0 0.3- K053B 568 0.1+ 0.3+
K0515 568 0.1+ 0.2- K0528 568 0.2+ 0.2-
S/2004 S 9
Epoch 2005 Jan. 30.0 TT = JDT 2453400.5 MPC
M 196.22788 (2000.0) P Q
n 0.33361171 Peri. 336.16517 -0.96607317 +0.14512743
a 0.1356353 Node 145.59200 +0.25182339 +0.71295551
e 0.2094328 Incl. 157.78624 -0.05733766 +0.68602658
P 2.95 H 15.6 P/d 1079.10
Residuals in seconds of arc
K04CC 568 0.4+ 0.2+ K0515 568 0.1- 0.3- K052A 568 0.2+ 0.0
K04CC 568 0.4- 0.1- K0515 568 0.1- 0.2+ K052A 568 0.1+ 0.0
K04CE 568 0.4+ 0.3+ K0527 568 0.1- 0.1- K0539 568 0.0 0.2+
K04CE 568 0.3- 0.2- K0527 568 0.1- 0.3- K0539 568 0.1- 0.1+
S/2004 S 10
Epoch 2005 Jan. 30.0 TT = JDT 2453400.5 MPC
M 236.44912 (2000.0) P Q
n 0.35090852 Peri. 281.08782 +0.08685068 -0.99419069
a 0.1311408 Node 196.47771 -0.80396553 -0.10763253
e 0.2371238 Incl. 167.04774 -0.58829958 +0.00031738
P 2.81 H 15.4 P/d 1025.91
Residuals in seconds of arc
K04CC 568 0.4- 0.3+ K0515 568 0.3+ 0.3+ K0539 568 0.0 0.0
K04CC 568 0.1- 0.2+ K0515 568 0.4- 0.2+ K0539 568 0.1+ 0.1-
K04CE 568 0.2+ 0.2+ K052E 568 0.1+ 0.2+ K053B 568 0.2- 0.0
K04CE 568 0.3+ 1.2- K052E 568 0.1+ 0.0 K053B 568 0.0 0.1-
S/2004 S 11
Epoch 2005 Jan. 30.0 TT = JDT 2453400.5 MPC
M 246.48791 (2000.0) P Q
n 0.43895465 Peri. 9.70908 -0.93075591 +0.33411597
a 0.1129589 Node 193.15155 -0.36369339 -0.88784830
e 0.3333091 Incl. 40.75171 -0.03769015 +0.31637307
P 2.25 H 14.9 P/d 820.13
Residuals in seconds of arc
K04CC 568 0.0 0.1- K0515 568 0.1+ 0.1+ K052A 568 0.0 0.1-
K04CC 568 0.4+ 0.4+ K0515 568 0.0 0.0 K052A 568 0.0 0.1-
K04CE 568 0.2- 0.2- K0527 568 0.1- 0.0 K0539 568 0.0 0.1-
K04CE 568 0.2- 0.1- K0527 568 0.1- 0.2+ K0539 568 0.0 0.1+
S/2004 S 12
Epoch 2005 Jan. 30.0 TT = JDT 2453400.5 MPC
M 286.16289 (2000.0) P Q
n 0.34333422 Peri. 96.52812 -0.76994373 -0.60628056
a 0.1330625 Node 313.62102 -0.63775929 +0.74149773
e 0.3962529 Incl. 164.04241 +0.02120706 +0.28741086
P 2.87 H 15.7 P/d 1048.54
Residuals in seconds of arc
K04CC 568 0.0 0.0 K0515 568 0.0 0.0 K0539 568 0.0 0.1-
K04CC 568 0.2- 0.1+ K0515 568 0.2- 0.1- K0539 568 0.0 0.0
K04CE 568 0.2+ 0.1- K0528 568 0.0 0.1-
K04CE 568 0.0 0.0 K0528 568 0.1+ 0.3+
S/2004 S 13
Epoch 2005 Jan. 30.0 TT = JDT 2453400.5 MPC
M 33.25353 (2000.0) P Q
n 0.39741761 Peri. 6.32189 -0.81596492 -0.55970551
a 0.1206986 Node 221.46403 -0.53950835 +0.64735527
e 0.2610261 Incl. 167.37943 -0.20768242 +0.51735954
P 2.48 H 15.6 P/d 905.85
Residuals in seconds of arc
K04CC 568 0.8+ 0.4- K04CE 568 (4.8- 1.0+) K052G 568 0.3+ 0.3+
K04CC 568 1.2+ 0.1+ K0515 568 0.1+ 0.1+ K0539 568 0.0 0.3-
K04CD 568 1.3+ 0.3- K0515 568 0.3+ 0.1+ K0539 568 0.0 0.1-
K04CD 568 1.0+ 0.8- K052G 568 0.4- 0.1+
S/2004 S 14
Epoch 2005 Jan. 30.0 TT = JDT 2453400.5 MPC
M 96.44331 (2000.0) P Q
n 0.33330287 Peri. 25.04131 +0.47953143 -0.85917162
a 0.1357191 Node 322.95093 -0.84673770 -0.50644769
e 0.2913261 Incl. 162.76332 -0.23040153 +0.07304012
P 2.96 H 13.5 P/d 1080.10
Residuals in seconds of arc
K04CC 568 0.0 0.1- K0515 568 0.2- 0.4+ K0539 568 0.0 0.1-
K04CC 568 0.1+ 0.1- K0515 568 0.1- 0.5+ K0539 568 0.0 0.1+
K04CE 568 0.0 0.1- K052F 568 0.2+ 0.1- K053B 568 0.1- 0.1-
K04CE 568 0.0 0.2- K052F 568 0.2+ 0.0 K053B 568 0.1- 0.0
S/2004 S 15
Epoch 2005 Jan. 30.0 TT = JDT 2453400.5 MPC
M 252.37458 (2000.0) P Q
n 0.35761874 Peri. 144.64072 +0.35731503 +0.90739659
a 0.1294951 Node 215.26243 +0.74417795 -0.13344275
e 0.1520172 Incl. 157.46438 +0.56438033 -0.39852786
P 2.76 H 15.1 P/d 1006.66
Residuals in seconds of arc
K04CC 568 0.0 0.9- K04CE 568 0.2- 0.6+ K052F 568 0.0 0.0
K04CC 568 1.2+ 0.3- K0515 568 0.7- 0.4+ K052F 568 0.1- 0.1-
K04CD 568 0.4- 0.4+ K0515 568 0.5- 0.0 K0539 568 0.0 0.0
K04CD 568 0.3- 0.7+ K0515 568 0.8+ 0.1- K0539 568 0.0 0.0
K04CE 568 0.6- 0.7- K0515 568 0.6+ 0.0
S/2004 S 16
Epoch 2005 Jan. 30.0 TT = JDT 2453400.5 MPC
M 302.16299 (2000.0) P Q
n 0.28360708 Peri. 133.48714 -0.24135077 +0.93798069
a 0.1511433 Node 239.04020 +0.78538600 +0.33943633
e 0.1311897 Incl. 163.12820 +0.57001635 -0.07053514
P 3.48 H 15.9 P/d 1269.36
Residuals in seconds of arc
K04CD 568 0.7- 0.1- K0515 568 0.4- 0.2- K0528 568 0.0 0.2-
K04CD 568 0.3- 0.2- K0515 568 0.2- 0.3- K0528 568 0.1+ 0.1+
K04CE 568 0.3+ 0.0 K0515 568 0.2+ 0.3+ K0535 568 0.1- 0.0
K04CE 568 0.8+ 0.2+ K0515 568 0.3+ 0.2+ K0535 568 0.0 0.0
S/2004 S 17
Epoch 2005 Jan. 30.0 TT = JDT 2453400.5 MPC
M 165.42494 (2000.0) P Q
n 0.36531431 Peri. 175.79027 -0.91274507 -0.40109068
a 0.1276701 Node 19.99448 -0.38113409 +0.90442446
e 0.2259100 Incl. 166.88154 -0.14708242 +0.14540521
P 2.70 H 16.0 P/d 985.45
Residuals in seconds of arc
K04CD 568 0.1+ 0.2- K0515 568 0.2- 0.2- K052A 568 0.1+ 0.1-
K04CD 568 0.0 0.1+ K0515 568 0.2+ 0.3+ K052A 568 0.1+ 0.0
K04CE 568 0.4- 0.1- K0527 568 0.0 0.0 K0535 568 0.1- 0.1+
K04CE 568 0.3+ 0.2+ K0527 568 0.3- 0.1+ K0535 568 0.1+ 0.1-
S/2004 S 18
Epoch 2005 Jan. 30.0 TT = JDT 2453400.5 MPC
M 144.21470 (2000.0) P Q
n 0.34197078 Peri. 84.48030 -0.75840340 -0.41036881
a 0.1334159 Node 289.60396 -0.55433580 +0.81475697
e 0.7723547 Incl. 147.48367 +0.34283539 +0.40959555
P 2.88 H 14.7 P/d 1052.72
Residuals in seconds of arc
K04CD 568 0.6- 0.1- K0515 568 0.6+ 0.4+ K0528 568 0.2+ 0.2-
K04CD 568 0.4+ 0.2- K0515 568 0.5- 0.3+ K0528 568 0.2+ 0.3-
K04CE 568 0.1- 0.0 K0527 568 0.3- 0.1- K0535 568 0.1+ 0.1+
K04CE 568 0.3+ 0.1+ K0527 568 0.2- 0.1- K0535 568 0.0 0.2+
Ephemerides:
S/2004 S 7
Date TT R. A. (2000) Decl. Delta r_S dR.A. ("/m) dDecl.m1"/')
2005 04 30 07 31.37 +21 56.9 9.273 0.109 2007-/2.40- 296+/ 4.9+
2005 05 10 07 34.82 +21 50.8 9.422 0.104 1756-/2.10- 313+/ 5.2+
2005 05 20 07 38.84 +21 43.1 9.560 0.098 1495-/1.79- 326+/ 5.4+
2005 05 30 07 43.33 +21 33.8 9.683 0.093 1226-/1.46- 334+/ 5.6+
2005 06 09 07 48.23 +21 22.9 9.791 0.088 948-/1.13- 334+/ 5.6+
S/2004 S 8
Date TT R. A. (2000) Decl. Delta r_S dR.A. ("/m) dDecl. ("/')
2005 04 30 07 30.41 +21 48.1 9.257 0.148 2816-/3.37- 230-/ 3.8-
2005 05 10 07 33.78 +21 41.9 9.404 0.146 2634-/3.15- 221-/ 3.7-
2005 05 20 07 37.70 +21 34.1 9.538 0.145 2446-/2.92- 212-/ 3.5-
2005 05 30 07 42.11 +21 24.8 9.659 0.144 2252-/2.69- 204-/ 3.4-
2005 06 09 07 46.91 +21 14.0 9.762 0.142 2053-/2.45- 199-/ 3.3-
S/2004 S 9
Date TT R. A. (2000) Decl. Delta r_S dR.A. ("/m) dDecl. ("/')
2005 04 30 07 31.87 +21 53.2 9.192 0.158 1592-/1.91- 76+/ 1.3+
2005 05 10 07 35.25 +21 45.6 9.343 0.157 1403-/1.68- 3+/ 0.1+
2005 05 20 07 39.18 +21 36.5 9.482 0.156 1211-/1.45- 70-/ 1.2-
2005 05 30 07 43.58 +21 25.8 9.608 0.155 1017-/1.21- 143-/ 2.4-
2005 06 09 07 48.38 +21 13.7 9.717 0.154 823-/0.98- 218-/ 3.6-
S/2004 S 10
Date TT R. A. (2000) Decl. Delta r_S dR.A. ("/m) dDecl. ("/')
2005 04 30 07 30.26 +22 03.0 9.360 0.139 2934-/3.52- 662+/ 11.0+
2005 05 10 07 33.47 +21 56.1 9.505 0.137 2888-/3.46- 630+/ 10.5+
2005 05 20 07 37.23 +21 47.7 9.637 0.136 2834-/3.39- 600+/ 10.0+
2005 05 30 07 41.48 +21 37.7 9.755 0.134 2771-/3.31- 571+/ 9.5+
2005 06 09 07 46.14 +21 26.4 9.855 0.132 2698-/3.22- 541+/ 9.0+
S/2004 S 11
Date TT R. A. (2000) Decl. Delta r_S dR.A. ("/m) dDecl. ("/')
2005 04 30 07 32.50 +21 27.6 9.413 0.115 1067-/1.27- 1461-/ 24.3-
2005 05 10 07 35.86 +21 21.6 9.566 0.112 894-/1.07- 1440-/ 24.0-
2005 05 20 07 39.76 +21 14.1 9.708 0.109 728-/0.87- 1414-/ 23.6-
2005 05 30 07 44.12 +21 05.2 9.834 0.106 566-/0.67- 1383-/ 23.0-
2005 06 09 07 48.87 +20 54.9 9.943 0.103 408-/0.48- 1346-/ 22.4-
S/2004 S 12
Date TT R. A. (2000) Decl. Delta r_S dR.A. ("/m) dDecl. ("/')
2005 04 30 07 33.20 +21 55.4 9.225 0.109 483-/0.58- 206+/ 3.4+
2005 05 10 07 36.64 +21 49.2 9.381 0.106 237-/0.28- 216+/ 3.6+
2005 05 20 07 40.63 +21 41.3 9.526 0.103 6+/0.01+ 221+/ 3.7+
2005 05 30 07 45.09 +21 31.9 9.657 0.099 245+/0.29+ 221+/ 3.7+
2005 06 09 07 49.93 +21 21.0 9.772 0.096 475+/0.57+ 216+/ 3.6+
S/2004 S 13
Date TT R. A. (2000) Decl. Delta r_S dR.A. ("/m) dDecl. ("/')
2005 04 30 07 34.09 +22 00.3 9.447 0.117 257+/0.31+ 498+/ 8.3+
2005 05 10 07 36.99 +21 54.2 9.603 0.120 51+/0.06+ 520+/ 8.7+
2005 05 20 07 40.44 +21 46.7 9.746 0.122 156-/0.19- 543+/ 9.0+
2005 05 30 07 44.36 +21 37.7 9.875 0.124 361-/0.43- 567+/ 9.4+
2005 06 09 07 48.69 +21 27.2 9.985 0.126 564-/0.67- 593+/ 9.9+
S/2004 S 14
Date TT R. A. (2000) Decl. Delta r_S dR.A. ("/m) dDecl. ("/')
2005 04 30 07 36.41 +21 48.0 9.463 0.165 2201+/2.63+ 235-/ 3.9-
2005 05 10 07 39.36 +21 41.2 9.622 0.166 2037+/2.44+ 260-/ 4.3-
2005 05 20 07 42.85 +21 32.9 9.770 0.167 1866+/2.23+ 283-/ 4.7-
2005 05 30 07 46.81 +21 23.2 9.902 0.168 1691+/2.02+ 304-/ 5.1-
2005 06 09 07 51.16 +21 12.0 10.017 0.169 1511+/1.80+ 321-/ 5.4-
S/2004 S 15
Date TT R. A. (2000) Decl. Delta r_S dR.A. ("/m) dDecl. ("/')
2005 04 30 07 36.49 +22 00.0 9.404 0.127 2265+/2.71+ 479+/ 8.0+
2005 05 10 07 39.42 +21 54.2 9.564 0.126 2080+/2.49+ 517+/ 8.6+
2005 05 20 07 42.88 +21 46.9 9.712 0.125 1889+/2.26+ 553+/ 9.2+
2005 05 30 07 46.82 +21 38.0 9.845 0.124 1693+/2.02+ 588+/ 9.8+
2005 06 09 07 51.14 +21 27.8 9.960 0.123 1491+/1.78+ 623+/ 10.4+
S/2004 S 16
Date TT R. A. (2000) Decl. Delta r_S dR.A. ("/m) dDecl. ("/')
2005 04 30 07 35.88 +22 01.6 9.438 0.135 1754+/2.10+ 577+/ 9.6+
2005 05 10 07 38.77 +21 55.3 9.597 0.135 1543+/1.85+ 582+/ 9.7+
2005 05 20 07 42.21 +21 47.4 9.743 0.134 1329+/1.59+ 587+/ 9.8+
2005 05 30 07 46.12 +21 38.1 9.874 0.134 1111+/1.33+ 594+/ 9.9+
